When you browse on this site, cookies collect data to enhance your experience and personalize the content and advertising you see.
Visit our Privacy Policy to learn more. By continuing to use the site, you agree to this use of cookies and data.

Hourly Weather Bamenda

Today, 12 August, Wednesday

Time Temperature Precipitation Wind Pressure Humidity
00:00 +18°C° 0.1 mm 1 mps 642 mmHg 97%
01:00 +18°C° 0 mm 1 mps 642 mmHg 98%
02:00 +18°C° 0.1 mm 1 mps 641 mmHg 98%
03:00 +16°C° 0.1 mm 0 mps 641 mmHg 98%
04:00 +16°C° 0.1 mm 0 mps 641 mmHg 98%
05:00 +16°C° 0 mm 0 mps 642 mmHg 97%
06:00 +16°C° 0 mm 0 mps 642 mmHg 97%
07:00 +16°C° 0 mm 0 mps 642 mmHg 96%
08:00 +18°C° 0.1 mm 0 mps 643 mmHg 91%
09:00 +20°C° 0.1 mm 0 mps 644 mmHg 85%
10:00 +23°C° 0.1 mm 1 mps 644 mmHg 80%
11:00 +24°C° 0.4 mm 1 mps 644 mmHg 79%
12:00 +24°C° 0.4 mm 1 mps 643 mmHg 78%
13:00 +25°C° 0.4 mm 1 mps 643 mmHg 77%
14:00 +24°C° 1 mm 1 mps 642 mmHg 80%
15:00 +23°C° 1 mm 1 mps 642 mmHg 84%
16:00 +23°C° 1 mm 1 mps 641 mmHg 87%
17:00 +22°C° 1 mm 1 mps 641 mmHg 90%
18:00 +21°C° 1 mm 1 mps 641 mmHg 93%
19:00 +20°C° 1 mm 1 mps 641 mmHg 96%
20:00 +19°C° 0.1 mm 1 mps 642 mmHg 97%
21:00 +19°C° 0.1 mm 1 mps 642 mmHg 97%
22:00 +17°C° 0.1 mm 0 mps 642 mmHg 97%
23:00 +19°C° 0.1 mm 1 mps 642 mmHg 97%

Tomorrow, 13 August, Thursday

Time Temperature Precipitation Wind Pressure Humidity
00:00 +19°C° 0.1 mm 1 mps 642 mmHg 98%
01:00 +18°C° 0.1 mm 1 mps 642 mmHg 98%
02:00 +18°C° 0.1 mm 1 mps 641 mmHg 98%
03:00 +18°C° 0.1 mm 1 mps 641 mmHg 98%
04:00 +18°C° 0.1 mm 1 mps 641 mmHg 98%
05:00 +18°C° 0 mm 1 mps 641 mmHg 97%
06:00 +16°C° 0 mm 0 mps 641 mmHg 96%
07:00 +16°C° 0 mm 0 mps 642 mmHg 96%
08:00 +20°C° 0 mm 1 mps 642 mmHg 86%
09:00 +22°C° 0 mm 1 mps 643 mmHg 75%
10:00 +24°C° 0 mm 1 mps 644 mmHg 65%
11:00 +24°C° 0 mm 1 mps 643 mmHg 63%
12:00 +25°C° 0 mm 1 mps 643 mmHg 61%
13:00 +26°C° 0 mm 1 mps 643 mmHg 59%
14:00 +25°C° 0.3 mm 1 mps 642 mmHg 64%
15:00 +25°C° 0.3 mm 1 mps 641 mmHg 70%
16:00 +24°C° 0.3 mm 1 mps 640 mmHg 76%
17:00 +22°C° 0.3 mm 1 mps 640 mmHg 83%
18:00 +21°C° 0.3 mm 1 mps 640 mmHg 90%
19:00 +20°C° 0.3 mm 1 mps 640 mmHg 96%
20:00 +19°C° 0 mm 1 mps 640 mmHg 96%
21:00 +19°C° 0 mm 1 mps 640 mmHg 96%
22:00 +18°C° 0 mm 1 mps 641 mmHg 97%
23:00 +18°C° 0 mm 1 mps 640 mmHg 97%

Day after tomorrow, 14 August, Friday

Time Temperature Precipitation Wind Pressure Humidity
00:00 +18°C° 0 mm 1 mps 640 mmHg 97%
01:00 +18°C° 0 mm 1 mps 640 mmHg 97%
02:00 +18°C° 0.1 mm 1 mps 640 mmHg 97%
03:00 +18°C° 0.1 mm 1 mps 640 mmHg 97%
04:00 +18°C° 0.1 mm 1 mps 639 mmHg 97%
05:00 +18°C° 0.1 mm 1 mps 640 mmHg 96%
06:00 +19°C° 0.1 mm 1 mps 640 mmHg 96%
07:00 +19°C° 0.1 mm 1 mps 640 mmHg 95%
08:00 +20°C° 0.1 mm 1 mps 641 mmHg 91%
09:00 +21°C° 0.1 mm 1 mps 642 mmHg 86%
10:00 +23°C° 0.1 mm 1 mps 642 mmHg 82%
11:00 +23°C° 0.4 mm 1 mps 642 mmHg 80%
12:00 +24°C° 0.4 mm 1 mps 642 mmHg 78%
13:00 +24°C° 0.4 mm 2 mps 641 mmHg 76%
14:00 +24°C° 1.2 mm 2 mps 640 mmHg 79%
15:00 +23°C° 1.2 mm 2 mps 640 mmHg 82%
16:00 +23°C° 1.2 mm 2 mps 639 mmHg 85%
17:00 +20°C° 0.5 mm 2 mps 639 mmHg 88%
18:00 +19°C° 0.5 mm 2 mps 639 mmHg 92%
19:00 +19°C° 0.5 mm 1 mps 639 mmHg 95%
20:00 +18°C° 0 mm 1 mps 639 mmHg 96%
21:00 +18°C° 0 mm 1 mps 640 mmHg 96%
22:00 +16°C° 0 mm 1 mps 640 mmHg 96%
23:00 +16°C° 0 mm 1 mps 640 mmHg 97%

15 August, Saturday

Time Temperature Precipitation Wind Pressure Humidity
00:00 +16°C° 0 mm 1 mps 640 mmHg 97%
01:00 +16°C° 0 mm 1 mps 640 mmHg 97%
02:00 +16°C° 0 mm 1 mps 640 mmHg 97%
03:00 +16°C° 0 mm 1 mps 640 mmHg 97%
04:00 +16°C° 0 mm 1 mps 640 mmHg 96%
05:00 +16°C° 0 mm 1 mps 640 mmHg 96%
06:00 +18°C° 0 mm 1 mps 640 mmHg 96%
07:00 +18°C° 0 mm 1 mps 640 mmHg 96%
08:00 +19°C° 0 mm 1 mps 641 mmHg 91%
09:00 +20°C° 0 mm 1 mps 642 mmHg 86%
10:00 +22°C° 0 mm 1 mps 643 mmHg 80%
11:00 +22°C° 0.1 mm 1 mps 642 mmHg 78%
12:00 +23°C° 0.1 mm 2 mps 642 mmHg 76%
13:00 +24°C° 0.1 mm 2 mps 642 mmHg 73%
14:00 +23°C° 0.5 mm 2 mps 641 mmHg 76%
15:00 +23°C° 0.5 mm 2 mps 640 mmHg 78%
16:00 +23°C° 0.5 mm 2 mps 639 mmHg 81%
17:00 +20°C° 0.2 mm 2 mps 639 mmHg 85%
18:00 +20°C° 0.2 mm 1 mps 639 mmHg 90%
19:00 +19°C° 0.2 mm 1 mps 639 mmHg 95%
20:00 +19°C° 0 mm 1 mps 640 mmHg 95%
21:00 +19°C° 0 mm 1 mps 640 mmHg 96%
22:00 +18°C° 0 mm 1 mps 640 mmHg 96%
23:00 +18°C° 0 mm 1 mps 640 mmHg 96%

16 August, Sunday

Time Temperature Precipitation Wind Pressure Humidity
00:00 +18°C° 0 mm 1 mps 640 mmHg 96%
01:00 +18°C° 0 mm 1 mps 640 mmHg 97%
02:00 +18°C° 0 mm 1 mps 640 mmHg 97%
03:00 +18°C° 0 mm 1 mps 639 mmHg 97%
04:00 +18°C° 0 mm 1 mps 639 mmHg 97%
05:00 +18°C° 0 mm 1 mps 640 mmHg 96%
06:00 +18°C° 0 mm 1 mps 640 mmHg 96%
07:00 +18°C° 0 mm 1 mps 640 mmHg 96%
08:00 +19°C° 0.1 mm 1 mps 641 mmHg 93%
09:00 +20°C° 0.1 mm 1 mps 642 mmHg 90%
10:00 +21°C° 0.1 mm 1 mps 642 mmHg 87%
11:00 +21°C° 0.5 mm 1 mps 642 mmHg 86%
12:00 +22°C° 0.5 mm 1 mps 641 mmHg 86%
13:00 +21°C° 0.5 mm 2 mps 641 mmHg 85%
14:00 +21°C° 0.8 mm 2 mps 640 mmHg 86%
15:00 +21°C° 0.8 mm 2 mps 640 mmHg 87%
16:00 +22°C° 0.8 mm 1 mps 639 mmHg 87%
17:00 +21°C° 0.6 mm 1 mps 639 mmHg 91%
18:00 +20°C° 0.6 mm 1 mps 639 mmHg 94%
19:00 +19°C° 0.6 mm 1 mps 639 mmHg 97%
20:00 +19°C° 0.1 mm 1 mps 640 mmHg 97%
21:00 +19°C° 0.1 mm 1 mps 640 mmHg 97%
22:00 +18°C° 0.1 mm 1 mps 640 mmHg 98%
23:00 +18°C° 0 mm 1 mps 640 mmHg 97%

17 August, Monday

Time Temperature Precipitation Wind Pressure Humidity
00:00 +18°C° 0 mm 1 mps 640 mmHg 97%
01:00 +18°C° 0 mm 1 mps 640 mmHg 97%
02:00 +18°C° 0 mm 1 mps 640 mmHg 97%
03:00 +18°C° 0 mm 1 mps 639 mmHg 97%
04:00 +16°C° 0 mm 0 mps 639 mmHg 97%
05:00 +16°C° 0 mm 0 mps 640 mmHg 96%
06:00 +16°C° 0 mm 0 mps 640 mmHg 96%
07:00 +16°C° 0 mm 0 mps 640 mmHg 95%
08:00 +18°C° 0.1 mm 0 mps 641 mmHg 90%
09:00 +21°C° 0.1 mm 1 mps 642 mmHg 85%
10:00 +23°C° 0.1 mm 1 mps 643 mmHg 81%
11:00 +23°C° 1.3 mm 1 mps 642 mmHg 83%
12:00 +23°C° 1.3 mm 1 mps 642 mmHg 85%
13:00 +23°C° 1.3 mm 1 mps 641 mmHg 88%
14:00 +22°C° 1.5 mm 1 mps 640 mmHg 90%
15:00 +22°C° 1.5 mm 1 mps 640 mmHg 92%
16:00 +21°C° 1.5 mm 1 mps 639 mmHg 93%
17:00 +20°C° 0.5 mm 1 mps 639 mmHg 95%
18:00 +20°C° 0.5 mm 1 mps 639 mmHg 96%
19:00 +17°C° 0.5 mm 0 mps 639 mmHg 98%
20:00 +17°C° 0.1 mm 0 mps 640 mmHg 97%
21:00 +17°C° 0.1 mm 0 mps 640 mmHg 97%
22:00 +17°C° 0.1 mm 0 mps 641 mmHg 97%
23:00 +16°C° 0 mm 0 mps 640 mmHg 97%
Show more